TimeCDT,TemperatureF,Dew PointF,Humidity,Sea Level PressureIn,VisibilityMPH,Wind Direction,Wind SpeedMPH,Gust SpeedMPH,PrecipitationIn,Events,Conditions,WindDirDegrees,DateUTC
12:51 AM,66.9,57.9,73,29.96,10.0,NNE,17.3,21.9,N/A,,Clear,30,2013-05-02 05:51:00
1:49 AM,62.6,46.4,55,30.08,10.0,NNE,23.0,-,N/A,,Mostly Cloudy,20,2013-05-02 06:49:00
1:51 AM,61.0,46.0,58,30.02,10.0,NNE,23.0,29.9,N/A,,Mostly Cloudy,20,2013-05-02 06:51:00
2:51 AM,55.9,43.0,62,30.06,10.0,North,23.0,31.1,N/A,,Overcast,360,2013-05-02 07:51:00
3:51 AM,50.0,41.0,71,30.11,10.0,North,23.0,32.2,N/A,,Overcast,360,2013-05-02 08:51:00
4:51 AM,48.0,39.0,71,30.16,10.0,North,20.7,27.6,N/A,,Overcast,360,2013-05-02 09:51:00
5:51 AM,46.0,37.0,71,30.21,10.0,NNW,17.3,27.6,N/A,,Overcast,340,2013-05-02 10:51:00
6:51 AM,44.1,37.0,76,30.24,10.0,NNW,21.9,-,N/A,,Overcast,340,2013-05-02 11:51:00
7:51 AM,43.0,37.0,80,30.30,7.0,North,25.3,31.1,0.00,,Overcast,350,2013-05-02 12:51:00
8:51 AM,44.1,36.0,73,30.32,10.0,NNW,16.1,24.2,0.00,,Overcast,340,2013-05-02 13:51:00
9:51 AM,45.0,36.0,71,30.34,10.0,North,19.6,28.8,N/A,,Overcast,360,2013-05-02 14:51:00
10:51 AM,45.0,35.1,68,30.38,10.0,North,25.3,31.1,N/A,,Overcast,360,2013-05-02 15:51:00
11:51 AM,46.0,36.0,68,30.41,10.0,NNW,21.9,33.4,N/A,,Overcast,340,2013-05-02 16:51:00
12:51 PM,46.9,36.0,66,30.42,10.0,North,26.5,32.2,N/A,,Overcast,360,2013-05-02 17:51:00
1:51 PM,46.9,35.1,63,30.43,10.0,North,27.6,34.5,N/A,,Overcast,350,2013-05-02 18:51:00
2:51 PM,48.0,34.0,58,30.44,10.0,North,23.0,33.4,N/A,,Overcast,350,2013-05-02 19:51:00
3:47 PM,48.2,33.8,58,30.43,10.0,North,21.9,27.6,N/A,,Overcast,350,2013-05-02 20:47:00
3:51 PM,50.0,34.0,54,30.43,10.0,North,21.9,28.8,N/A,,Overcast,360,2013-05-02 20:51:00
4:51 PM,53.1,33.1,47,30.41,10.0,North,23.0,32.2,N/A,,Mostly Cloudy,360,2013-05-02 21:51:00
5:51 PM,55.9,33.1,42,30.38,10.0,North,27.6,32.2,N/A,,Scattered Clouds,350,2013-05-02 22:51:00
6:51 PM,54.0,32.0,43,30.40,10.0,North,23.0,33.4,N/A,,Partly Cloudy,360,2013-05-02 23:51:00
7:51 PM,52.0,30.9,45,30.41,10.0,North,24.2,32.2,N/A,,Clear,360,2013-05-03 00:51:00
8:51 PM,50.0,30.9,48,30.43,10.0,North,19.6,-,N/A,,Clear,360,2013-05-03 01:51:00
9:51 PM,48.9,30.9,50,30.46,10.0,North,13.8,-,N/A,,Clear,360,2013-05-03 02:51:00
10:51 PM,46.9,30.9,54,30.47,10.0,NNW,8.1,-,N/A,,Clear,340,2013-05-03 03:51:00
11:51 PM,45.0,30.0,56,30.46,10.0,NNW,9.2,-,N/A,,Clear,330,2013-05-03 04:51:00